Location: Ballingbuur
(53.0000°N, 5.7667°E)
Time: 21:05:11
(UTC+00:00)

AQUARIUS - Pass Details

Date: 29 November 2020
Orbit: 650 x 652 km, 98.0° (Epoch: 25 January)

Event Time Altitude Azimuth Distance (km) Brightness Sun altitude
Rises 06:29:39 0° 13° (NNE) 2,989 7.4 -8.0°
Reaches altitude 10° 06:31:53 10° 11° (N) 2,073 6.6 -7.7°
Maximum altitude 06:36:23 71° 289° (WNW) 694 4.1 -7.1°
Drops below altitude 10° 06:40:51 10° 205° (SSW) 2,056 6.8 -6.5°
Sets 06:43:03 0° 203° (SSW) 2,962 7.6 -6.2°
